AirNav   Air Wisconsin Up To $57,000 Bonus
 
 963 users online  

29S Gardiner Airport
Gardiner, Montana, USA

GOING TO GARDINER?


FAA INFORMATION EFFECTIVE 31 DECEMBER 2020

Location

FAA Identifier: 29S
Lat/Long: 45-02-59.7680N 110-44-47.7630W
45-02.996133N 110-44.796050W
45.0499356,-110.7466008
(estimated)
Elevation: 5286 ft. / 1611 m (estimated)
Variation: 16E (1985)
From city: 2 miles NW of GARDINER, MT
Time zone: UTC -7 (UTC -6 during Daylight Saving Time)
Zip code: 59030

Airport Operations

Airport use: Open to the public
Activation date: 09/1929
Control tower: no
ARTCC: SALT LAKE CITY CENTER
FSS: GREAT FALLS FLIGHT SERVICE STATION
NOTAMs facility: GTF (NOTAM-D service available)
Attendance: MON-FRI 0800-1700
Wind indicator: lighted
Segmented circle: yes
Lights: ACTVT LIRL RY 10/28 - CTAF.

Airport Communications

CTAF/UNICOM: 122.8

Airport Services

Parking: tiedowns
Bottled oxygen: NONE
Bulk oxygen: NONE

Runway Information

Runway 10/28

Dimensions: 3200 x 55 ft. / 975 x 17 m
Surface: asphalt/aggregate friction seal coat, in poor condition
LARGE CRACKS AND VEGETATION GROWTH THROUGHOUT RUNWAY SURFACE
Weight bearing capacity: 
Single wheel: 4.0
Runway edge lights: low intensity
Runway edge markings: NO CNTRLN RWY 10/28
RUNWAY 10  RUNWAY 28
Traffic pattern: rightleft
Markings: basic, in poor conditionbasic, in poor condition
Obstructions: none422 ft. hill, 4000 ft. from runway, 10:1 slope to clear
PUBLIC ROAD 85 FEET FROM END OF RWY BOTH SIDES ON CENTERLINE

Airport Ownership and Management from official FAA records

Ownership: Publicly-owned
Owner: CITY & COUNTY
COUNTY BLDG
LIVINGSTON, MT 59047
Phone 406-222-6120
Manager: HUNTER MICHELBRINK
414 E CALLENDER ST
LIVINGSTON, MT 59047
Phone (406) 848-7200

Airport Operational Statistics

Aircraft based on the field: 3
Single engine airplanes: 3
    
Aircraft operations: avg 78/month *
54% local general aviation
43% transient general aviation
3% air taxi
* for 12-month period ending 21 July 2019

Additional Remarks

RY 10 MTN 1 1/2 MILE IS 9:1 RATIO.
RY LIGHTS FOR EMERGENCY USE ONLY.
FOR CD CTC SALT LAKE ARTCC AT 801-320-2568.

Instrument Procedures

There are no published instrument procedures at 29S.

Some nearby airports with instrument procedures:

KWYS - Yellowstone Airport (27 nm SW)
KEKS - Ennis - Big Sky Airport (40 nm W)
KLVM - Mission Field Airport (41 nm N)
KBZN - Bozeman Yellowstone International Airport (47 nm N)
6S0 - Big Timber Airport (56 nm NE)
 
Loc | Ops | Rwys | IFR | FBO | Links
Com | Nav | Svcs | Stats | Notes
Area around 29S (Gardiner Airport)
 
Road maps at: MapQuest Bing Google
 
Aerial photo
WARNING: Photo may not be current or correct
Aerial photo of 29S (Gardiner Airport)
Photo taken 27-May-2005

Do you have a better or more recent aerial photo of Gardiner Airport that you would like to share? If so, please send us your photo.

 
Sectional chart

 
Airport distance calculator
Flying to Gardiner Airport? Find the distance to fly.

From to 29S

Sunrise and sunset
Times for 24-Jan-2021
 Local
(UTC-7)
 Zulu
(UTC)
Morning civil twilight07:2014:20
Sunrise07:5214:52
Sunset17:1800:18
Evening civil twilight17:5000:50

Current date and time
Zulu (UTC)  25-Jan-2021 01:55:10
Local (UTC-7)  24-Jan-2021 18:55:10
 
METAR
KP60 
33nm SE 
250056Z AUTO 32003KT M17/M18 A2965 RMK AO1 SLP153 T11671183
KEKS 
40nm W 
SuperAWOS
250130Z AUTO 18009G15KT 10SM FEW120 M06/M12 A2969 RMK AO2
KLVM 
41nm N 
250053Z AUTO 27003KT 10SM FEW090 M03/M11 A2964 RMK AO2 SLP090 T10331111
KBZN 
47nm N 
250056Z 17003KT 10SM CLR M03/M11 A2965 RMK AO2 SLP102 T10331111 $
TAF
NOTAMs
Click for the latest NOTAMs
NOTAMs are issued by the DoD/FAA and will open in a separate window not controlled by AirNav.

 

 
 

Would you like to see your business listed on this page?

 If your business provides an interesting product or service to pilots, flight crews, aircraft, or users of the Gardiner Airport, you should consider listing it here.  To start the listing process, click on the button below
 
Add a business
 

Other Pages about Gardiner Airport

Update a link
 
Copyright © AirNav, LLC. All rights reserved. Privacy Policy  Contact